When you browse on this site, cookies collect data to enhance your experience and personalize the content and advertising you see.
Visit our Privacy Policy to learn more. By continuing to use the site, you agree to this use of cookies and data.
  • In Romania
  • List of Countries
  • For 7 days
  • Water Temperature
  • Satellite Maps
  • Weather Map
  • Weather Widgets
  • user-avatar
    Login

    Hourly Weather Zawtat

    Today, 17 December, Monday

    Time Temperature Precipitation Wind Pressure Humidity
    00:00 +5°C° 0 mm 1 mps 740 mmHg 59%
    01:00 +5°C° 0 mm 1 mps 740 mmHg 57%
    02:00 +4°C° 0.1 mm 2 mps 740 mmHg 58%
    03:00 +5°C° 0.1 mm 2 mps 739 mmHg 59%
    04:00 +4°C° 0.1 mm 3 mps 739 mmHg 59%
    05:00 +4°C° 0.4 mm 3 mps 738 mmHg 63%
    06:00 +4°C° 0.4 mm 3 mps 738 mmHg 66%
    07:00 +4°C° 0.4 mm 4 mps 738 mmHg 69%
    08:00 +4°C° 0.6 mm 4 mps 738 mmHg 73%
    09:00 +3°C° 0.6 mm 5 mps 738 mmHg 77%
    10:00 +3°C° 0.6 mm 5 mps 738 mmHg 81%
    11:00 +3°C° 0.8 mm 5 mps 737 mmHg 83%
    12:00 +3°C° 0.8 mm 5 mps 737 mmHg 85%
    13:00 +3°C° 0.8 mm 5 mps 736 mmHg 87%
    14:00 +3°C° 0.7 mm 5 mps 736 mmHg 87%
    15:00 +3°C° 0.7 mm 5 mps 736 mmHg 87%
    16:00 +3°C° 0.7 mm 5 mps 736 mmHg 87%
    17:00 +3°C° 0.3 mm 5 mps 737 mmHg 86%
    18:00 +2°C° 0.3 mm 5 mps 737 mmHg 84%
    19:00 +2°C° 0.3 mm 5 mps 737 mmHg 82%
    20:00 +2°C° 0.1 mm 5 mps 738 mmHg 81%
    21:00 +1°C° 0.1 mm 5 mps 739 mmHg 79%
    22:00 +1°C° 0.1 mm 5 mps 739 mmHg 78%
    23:00 +1°C° 0.1 mm 5 mps 739 mmHg 77%

    Tomorrow, 18 December, Tuesday

    Time Temperature Precipitation Wind Pressure Humidity
    00:00 +1°C° 0.1 mm 5 mps 740 mmHg 76%
    01:00 0°C° 0.1 mm 5 mps 740 mmHg 76%
    02:00 0°C° 0 mm 5 mps 740 mmHg 76%
    03:00 +1°C° 0 mm 5 mps 740 mmHg 76%
    04:00 +1°C° 0 mm 5 mps 741 mmHg 75%
    05:00 +1°C° 0 mm 5 mps 741 mmHg 75%
    06:00 +1°C° 0 mm 5 mps 741 mmHg 75%
    07:00 +1°C° 0 mm 5 mps 742 mmHg 75%
    08:00 +1°C° 0 mm 4 mps 742 mmHg 76%
    09:00 +3°C° 0 mm 4 mps 743 mmHg 76%
    10:00 +4°C° 0 mm 4 mps 743 mmHg 76%
    11:00 +4°C° 0 mm 4 mps 743 mmHg 76%
    12:00 +5°C° 0 mm 4 mps 743 mmHg 76%
    13:00 +5°C° 0 mm 4 mps 743 mmHg 76%
    14:00 +5°C° 0 mm 4 mps 743 mmHg 77%
    15:00 +4°C° 0 mm 4 mps 743 mmHg 77%
    16:00 +3°C° 0 mm 4 mps 743 mmHg 77%
    17:00 +3°C° 0 mm 4 mps 744 mmHg 78%
    18:00 +1°C° 0 mm 4 mps 744 mmHg 79%
    19:00 0°C° 0 mm 4 mps 744 mmHg 81%
    20:00 0°C° 0 mm 4 mps 744 mmHg 80%
    21:00 0°C° 0 mm 4 mps 745 mmHg 80%
    22:00 +1°C° 0 mm 3 mps 745 mmHg 80%
    23:00 +1°C° 0 mm 3 mps 745 mmHg 79%

    Day after tomorrow, 19 December, Wednesday

    Time Temperature Precipitation Wind Pressure Humidity
    00:00 0°C° 0 mm 3 mps 745 mmHg 79%
    01:00 0°C° 0 mm 3 mps 744 mmHg 78%
    02:00 +1°C° 0 mm 3 mps 744 mmHg 77%
    03:00 +2°C° 0 mm 2 mps 744 mmHg 76%
    04:00 +2°C° 0 mm 2 mps 744 mmHg 75%
    05:00 +2°C° 0 mm 2 mps 744 mmHg 75%
    06:00 +2°C° 0 mm 2 mps 744 mmHg 74%
    07:00 +2°C° 0 mm 2 mps 744 mmHg 73%
    08:00 +3°C° 0 mm 2 mps 744 mmHg 73%
    09:00 +6°C° 0 mm 1 mps 744 mmHg 74%
    10:00 +7°C° 0 mm 1 mps 744 mmHg 74%
    11:00 +8°C° 0 mm 1 mps 744 mmHg 74%
    12:00 +8°C° 0 mm 1 mps 744 mmHg 73%
    13:00 +8°C° 0 mm 0 mps 743 mmHg 73%
    14:00 +7°C° 0 mm 0 mps 743 mmHg 74%
    15:00 +6°C° 0 mm 0 mps 743 mmHg 75%
    16:00 +5°C° 0 mm 0 mps 743 mmHg 77%
    17:00 +6°C° 0 mm 1 mps 743 mmHg 76%
    18:00 +5°C° 0 mm 1 mps 743 mmHg 75%
    19:00 +5°C° 0 mm 1 mps 744 mmHg 74%
    20:00 +4°C° 0 mm 2 mps 744 mmHg 74%
    21:00 +4°C° 0 mm 2 mps 744 mmHg 73%
    22:00 +4°C° 0 mm 2 mps 744 mmHg 72%
    23:00 +3°C° 0 mm 3 mps 744 mmHg 72%

    20 December, Thursday

    Time Temperature Precipitation Wind Pressure Humidity
    00:00 +3°C° 0 mm 3 mps 744 mmHg 72%
    01:00 +3°C° 0 mm 3 mps 743 mmHg 72%
    02:00 +3°C° 0 mm 3 mps 743 mmHg 71%
    03:00 +3°C° 0 mm 4 mps 743 mmHg 71%
    04:00 +3°C° 0 mm 4 mps 743 mmHg 71%
    05:00 +3°C° 0 mm 4 mps 743 mmHg 71%
    06:00 +3°C° 0 mm 4 mps 743 mmHg 72%
    07:00 +2°C° 0 mm 5 mps 743 mmHg 72%
    08:00 +3°C° 0 mm 5 mps 743 mmHg 73%
    09:00 +5°C° 0 mm 5 mps 743 mmHg 74%
    10:00 +5°C° 0 mm 6 mps 743 mmHg 74%
    11:00 +5°C° 0.1 mm 6 mps 742 mmHg 76%
    12:00 +7°C° 0.1 mm 6 mps 742 mmHg 77%
    13:00 +6°C° 0.1 mm 7 mps 741 mmHg 78%
    14:00 +7°C° 0.7 mm 6 mps 741 mmHg 81%
    15:00 +5°C° 0.7 mm 6 mps 741 mmHg 84%
    16:00 +5°C° 0.7 mm 6 mps 740 mmHg 87%
    17:00 +5°C° 0.8 mm 6 mps 741 mmHg 89%
    18:00 +6°C° 0.8 mm 5 mps 741 mmHg 91%
    19:00 +6°C° 0.8 mm 5 mps 741 mmHg 93%
    20:00 +6°C° 0.4 mm 4 mps 741 mmHg 93%
    21:00 +6°C° 0.4 mm 4 mps 741 mmHg 94%
    22:00 +7°C° 0.4 mm 3 mps 741 mmHg 94%
    23:00 +7°C° 0.2 mm 3 mps 741 mmHg 95%

    21 December, Friday

    Time Temperature Precipitation Wind Pressure Humidity
    00:00 +7°C° 0.2 mm 3 mps 741 mmHg 95%
    01:00 +7°C° 0.2 mm 2 mps 742 mmHg 95%
    02:00 +7°C° 0 mm 2 mps 742 mmHg 95%
    03:00 +7°C° 0 mm 2 mps 742 mmHg 94%
    04:00 +6°C° 0 mm 2 mps 742 mmHg 93%
    05:00 +6°C° 0.2 mm 2 mps 742 mmHg 92%
    06:00 +6°C° 0.2 mm 2 mps 742 mmHg 90%
    07:00 +6°C° 0.2 mm 2 mps 743 mmHg 89%
    08:00 +6°C° 0.2 mm 2 mps 743 mmHg 87%
    09:00 +8°C° 0.2 mm 1 mps 743 mmHg 85%
    10:00 +9°C° 0.2 mm 1 mps 744 mmHg 83%
    11:00 +10°C° 0 mm 1 mps 744 mmHg 82%
    12:00 +10°C° 0 mm 1 mps 744 mmHg 80%
    13:00 +10°C° 0 mm 1 mps 744 mmHg 78%
    14:00 +9°C° 0 mm 2 mps 744 mmHg 80%
    15:00 +8°C° 0 mm 2 mps 744 mmHg 82%
    16:00 +7°C° 0 mm 3 mps 744 mmHg 84%
    17:00 +7°C° 0 mm 2 mps 745 mmHg 84%
    18:00 +6°C° 0 mm 2 mps 745 mmHg 84%
    19:00 +5°C° 0 mm 2 mps 745 mmHg 85%
    20:00 +5°C° 0 mm 2 mps 745 mmHg 84%
    21:00 +5°C° 0 mm 2 mps 745 mmHg 84%
    22:00 +5°C° 0 mm 2 mps 745 mmHg 83%
    23:00 +5°C° 0 mm 2 mps 745 mmHg 82%

    22 December, Saturday

    Time Temperature Precipitation Wind Pressure Humidity
    00:00 +5°C° 0 mm 2 mps 745 mmHg 81%
    01:00 +5°C° 0 mm 2 mps 745 mmHg 80%
    02:00 +5°C° 0 mm 2 mps 745 mmHg 80%
    03:00 +5°C° 0 mm 2 mps 745 mmHg 80%
    04:00 +5°C° 0 mm 2 mps 745 mmHg 80%
    05:00 +5°C° 0 mm 2 mps 745 mmHg 81%
    06:00 +5°C° 0 mm 2 mps 745 mmHg 82%
    07:00 +4°C° 0 mm 2 mps 745 mmHg 82%
    08:00 +5°C° 0 mm 2 mps 745 mmHg 83%
    09:00 +6°C° 0 mm 2 mps 745 mmHg 84%
    10:00 +7°C° 0 mm 2 mps 745 mmHg 84%
    11:00 +8°C° 0.1 mm 2 mps 745 mmHg 86%
    12:00 +8°C° 0.1 mm 2 mps 745 mmHg 87%
    13:00 +8°C° 0.1 mm 2 mps 745 mmHg 88%
    14:00 +8°C° 0 mm 2 mps 745 mmHg 89%
    15:00 +8°C° 0 mm 2 mps 745 mmHg 90%
    16:00 +7°C° 0 mm 2 mps 745 mmHg 91%
    17:00 +7°C° 0 mm 2 mps 746 mmHg 91%
    18:00 +7°C° 0 mm 2 mps 746 mmHg 91%
    19:00 +7°C° 0 mm 2 mps 746 mmHg 90%
    20:00 +7°C° 0 mm 2 mps 746 mmHg 90%
    21:00 +7°C° 0 mm 2 mps 746 mmHg 90%
    22:00 +6°C° 0 mm 2 mps 746 mmHg 89%
    23:00 +6°C° 0 mm 2 mps 746 mmHg 89%
    Show more